weather.gov     
National Weather Service

Regional Weather Roundup
NWS Homepage
This page is being discontinued on March 12, 2014.
The same data is available at this site. Please update your bookmarks.
Thank you, and we apologize for the inconvenience.
Please send an email to SR-SRH.Webmaster@noaa.gov with any concerns.


Current Version
Previous Version:    01  02  03  04  05  06  07  08  09  10  11  12  13  14  15  16  17  18  19  20  21  22  23  24  25  26  27  28  29  30  
   31  32  33  34  35  36  37  38  39  40  41  42  43  44  45  46  47  48  49  50  51  52  53  54  
[Printable]
815
ASUS41 KCTP 261510
RWRCTP

REGIONAL WEATHER ROUNDUP
NATIONAL WEATHER SERVICE STATE COLLEGE PA
1100 AM EDT SAT JUL 26 2014

Note: "fair" indicates few or no clouds below 12,000 feet with no
significant weather and/or obstructions to visibility.

* = STATION THAT DOES NOT REPORT PRECIPITATION /E.G. RAIN...SNOW...ETC/
    THUNDER OR FOG.

PAZ002>004-007>009-013>016-020>023-029>032-261600-
WESTERN PENNSYLVANIA

CITY           SKY/WX    TMP DP  RH WIND       PRES   REMARKS
ERIE           SUNNY     76  54  46 SW7       29.95F
MEADVILLE      SUNNY     73  59  61 SW7       29.98F
FRANKLIN*      SUNNY     72  57  60 SW10      30.01S
NEW CASTLE       N/A     75  63  66 CALM      29.99F
BEAVER COUNTY  SUNNY     73  63  68 S5        30.00S
BUTLER*        SUNNY     73  61  64 S6        30.02S
PITTSBURGH INT MOSUNNY   75  60  59 SW8       30.00S
PITTSBURGH     SUNNY     75  59  57 S8        30.00S
INDIANA*       MOSUNNY   73  59  60 SW8       30.06S
LATROBE        MOSUNNY   75  61  60 SW12      30.02F
WASHINGTON CO* SUNNY     75  61  60 S8        30.02S
$$

PAZ004>006-010>012-017>019-024>028-033>037-041-042-045-046-049>053-261600-
CENTRAL PENNSYLVANIA

CITY           SKY/WX    TMP DP  RH WIND       PRES   REMARKS
BRADFORD       MOSUNNY   68  54  60 VRB6      30.01F
DUBOIS         MOSUNNY   70  58  65 SW8       30.01F
CLEARFIELD     MOSUNNY   66  58  75 VRB6      30.03F
JOHNSTOWN      PTSUNNY   68  57  68 SW9       30.06R
ALTOONA        MOSUNNY   74  59  59 S7        30.04F
STATE COLLEGE  PTSUNNY   70  59  68 SW6       30.03S
WILLIAMSPORT   CLOUDY    66  56  70 CALM      30.01S
SELINSGROVE    PTSUNNY   72  59  63 CALM      30.01F
FT INDIANTOWN  MOSUNNY   74  62  66 SE6       30.01F
CAPITAL CITY   MOSUNNY   72  60  66 CALM      30.01S
HARRISBURG     MOSUNNY   74  61  63 W3        30.00F
YORK           MOSUNNY   74  63  68 N3        30.01F
$$

PAZ038>040-043-044-047-048-054-055-060>062-067>071-261600-
EASTERN PENNSYLVANIA

CITY           SKY/WX    TMP DP  RH WIND       PRES   REMARKS
SCRANTON       CLOUDY    69  55  60 SW7       30.01S
MOUNT POCONO   CLOUDY    66  55  67 W7        30.04S
ALLENTOWN      PTSUNNY   73  59  61 CALM      30.01R
QUAKERTOWN*    PTSUNNY   72  64  78 W3        30.02F
READING        PTSUNNY   74  62  66 W7        30.00S
LANCASTER      CLOUDY    71  63  75 NW6       30.01F
COATESVILLE    CLOUDY    70  66  88 CALM      30.03R
POTTSTOWN      CLOUDY    72  66  81 CALM      30.02S
BLUE BELL      CLOUDY    73  70  88 S3        29.99F
DOYLESTOWN     CLOUDY    70  66  87 CALM      30.00R
WILLOW GROVE   NOT AVBL
NORTH PHILA    CLOUDY    73  67  81 CALM      30.01F
PHILADELPHIA   CLOUDY    75  66  73 CALM      30.01F
$$




U.S. Dept. of Commerce
NOAA National Weather Service
1325 East West Highway
Silver Spring, MD 20910
E-mail: w-nws.webmaster@noaa.gov
Page last modified: May 16, 2007
NATIONAL WEATHER SERVICE: for Safety, for Work, for Fun - FOR LIFE